EHI
0 0 0 0 0 0 0 0 0 0 0 0 0 0 0 0 0 0 0 0 1 2 6 13 17 19 18 16 14 14 16 18 18 17 14 9 5 1 0 0 0 1 1 1 0 0 0 1 1
0 0 0 0 0 0 0 0 0 0 0 0 0 0 0 0 0 0 0 0 0 1 4 10 16 18 17 15 12 12 13 14 14 14 12 9 5 2 1 0 0 0 1 1 1 1 0 0 1
0 0 0 0 0 0 0 0 0 0 0 0 0 0 0 0 0 1 1 1 1 1 3 8 15 18 17 14 10 8 8 8 9 10 9 7 5 4 3 2 1 1 2 2 3 3 1 0 0
0 0 0 0 0 0 0 0 0 0 0 0 0 0 0 0 0 1 2 2 2 3 3 8 16 18 15 13 9 7 5 5 6 7 6 5 5 5 5 4 3 3 3 3 3 3 1 0 0
0 0 0 0 0 0 0 0 0 0 0 0 0 0 0 0 0 0 1 2 3 3 2 7 14 16 12 10 10 9 7 5 5 5 5 3 3 5 5 5 4 3 3 3 3 2 1 0 0
0 0 0 0 0 0 0 0 0 0 0 0 0 0 0 0 0 1 2 3 4 3 2 5 9 11 9 8 9 9 8 6 5 5 5 3 3 5 6 5 3 2 1 1 2 2 1 0 0
0 0 0 0 0 0 0 0 0 0 0 0 0 0 1 2 1 1 3 4 4 3 2 2 4 5 5 5 5 7 8 6 5 4 4 4 4 5 5 4 3 2 1 1 1 1 1 0 0
0 0 0 0 0 0 0 0 0 0 0 0 0 1 2 3 3 3 3 4 4 4 3 1 1 1 2 2 2 4 5 5 3 2 2 2 3 3 3 2 2 1 1 1 1 0 0 0 0
0 0 0 0 0 0 0 0 0 0 0 0 0 1 2 3 3 3 3 3 3 3 3 2 0 0 0 0 0 1 2 2 1 0 0 1 1 1 1 1 1 1 1 0 0 0 0 0 0
0 0 0 0 0 0 0 0 0 0 0 0 0 1 2 3 3 3 2 1 1 2 2 1 0 0 0 0 0 0 0 0 0 0 0 0 0 0 0 0 0 0 0 0 0 0 0 0 0
0 0 0 0 0 0 0 0 0 0 0 0 0 0 1 2 3 3 1 0 1 2 2 1 0 0 0 0 0 0 0 0 0 0 0 0 0 0 0 0 0 0 0 0 0 0 0 0 0
0 0 0 0 0 0 0 0 0 0 0 0 0 0 1 2 2 2 1 1 2 3 2 1 0 0 0 0 0 0 0 0 0 0 0 0 0 0 0 0 0 0 0 0 0 0 0 0 0
0 0 0 0 0 0 0 0 0 0 0 0 0 0 0 1 1 1 0 1 2 2 1 0 0 0 0 0 0 0 0 0 0 0 0 0 0 0 0 0 0 0 0 0 0 0 0 0 0
0 0 0 0 0 0 0 0 0 0 0 0 0 0 0 0 0 0 0 0 1 1 0 0 0 0 0 0 0 0 0 0 0 0 0 0 0 0 0 0 0 0 0 0 0 0 0 0 0
0 0 0 0 0 0 0 0 0 0 0 0 0 0 0 0 0 0 0 0 0 0 0 0 0 0 0 0 0 0 0 0 0 0 0 0 0 0 0 0 0 0 0 0 0 0 0 0 0
0 0 0 0 0 0 0 0 0 0 0 0 0 0 0 0 0 0 0 0 0 0 0 0 0 0 0 0 0 0 0 0 0 0 0 0 0 0 0 0 0 0 0 0 0 0 0 0 0
0 0 0 0 0 0 0 0 0 0 0 0 0 0 0 0 0 0 0 0 0 0 0 0 0 0 0 0 0 0 0 0 0 0 0 0 0 0 0 0 0 0 0 0 0 0 0 0 0
0 0 0 0 0 0 0 0 0 0 0 0 0 0 0 0 0 0 0 0 0 0 0 0 0 0 0 0 0 0 0 0 0 0 0 0 0 0 0 0 0 0 0 0 0 0 0 0 0
0 0 0 0 0 0 0 0 0 0 0 0 0 0 0 0 0 0 0 0 0 0 0 0 0 0 0 0 0 0 0 0 0 0 0 0 0 0 0 0 0 0 0 0 0 0 0 0 0
0 0 0 0 0 0 0 0 0 0 0 0 0 0 0 0 0 0 0 0 0 0 0 0 0 0 0 0 0 0 0 0 0 0 0 0 0 0 0 0 0 0 0 0 0 0 0 0 0
0 0 0 0 0 0 0 0 0 0 0 0 0 0 0 0 0 0 0 0 0 0 0 0 0 0 0 0 0 0 0 0 0 0 0 0 0 0 0 0 0 0 0 0 0 0 0 0 0
0 0 0 0 0 0 0 0 0 0 0 0 0 0 0 0 0 0 0 0 0 0 0 0 0 0 0 0 0 0 0 0 0 0 0 0 0 0 0 0 0 0 0 0 0 0 0 0 0
0 0 0 0 0 0 0 0 0 0 0 0 0 0 0 0 0 0 0 0 0 0 0 0 0 0 0 0 0 0 0 0 0 0 0 0 0 0 0 0 0 0 0 0 0 0 0 0 0
0 0 0 0 0 0 0 0 0 0 0 0 0 0 0 0 0 0 0 0 0 0 0 0 0 0 0 0 0 0 0 0 0 0 0 0 0 0 0 0 0 0 0 0 0 0 0 0 0
0 0 0 0 0 0 0 0 0 0 0 0 0 0 0 0 0 0 0 0 0 0 0 0 0 0 0 0 0 0 0 0 0 0 0 0 0 0 0 0 0 0 0 0 0 0 0 0 0
0 0 0 0 0 0 0 0 0 0 0 0 0 0 0 0 0 0 0 0 0 0 0 0 0 0 0 0 0 0 0 0 0 0 0 0 0 0 0 0 0 0 0 0 0 0 0 0 0
0 0 0 0 0 0 0 0 0 0 0 0 0 0 0 0 0 0 0 0 0 0 0 0 0 0 0 0 0 0 0 0 0 0 0 0 0 0 0 0 0 0 0 0 0 0 0 0 0
0 0 0 0 0 0 0 0 0 0 0 0 0 0 0 0 0 0 0 0 0 0 0 0 0 0 0 0 0 0 0 0 0 0 0 0 0 0 0 0 0 0 0 0 0 0 0 0 0
0 0 0 0 0 0 0 0 0 0 0 0 0 0 0 0 0 0 0 0 0 0 0 0 0 0 0 0 0 0 0 0 0 0 0 0 0 0 0 0 0 0 0 0 0 0 0 0 0
0 0 0 0 0 0 0 0 0 0 0 0 0 0 0 0 0 0 0 0 0 0 0 0 0 0 0 0 0 0 0 0 0 0 0 0 0 0 0 0 0 0 0 0 0 0 0 0 0
Wind_Speed
8 4 2 4 5 3 4 4 2 2 1 1 1 2 4 4 4 3 0 2 3 3 2 4 7 8 8 8 9 9 9 9 10 10 10 10 10 10 10 10 10 10 10 10 10 11 11 12 12
2 2 4 5 4 2 5 4 3 3 2 1 2 2 2 1 1 1 1 1 3 3 2 3 7 8 8 9 9 8 9 9 10 10 9 10 10 10 10 10 10 10 10 10 10 10 11 11 11
2 3 4 4 3 6 5 3 3 1 0 1 1 1 1 0 0 1 1 1 3 3 2 3 6 8 8 9 8 8 8 8 9 9 9 9 9 9 9 9 9 10 10 10 10 10 10 11 10
3 4 5 3 4 5 4 1 1 0 2 2 2 1 1 2 0 1 0 3 4 3 3 3 6 7 7 8 8 8 7 8 8 8 8 8 8 8 8 8 9 9 9 9 10 10 10 10 10
4 4 3 0 4 4 2 2 1 1 0 1 1 1 1 2 2 2 3 4 4 3 3 3 5 6 7 7 8 7 7 7 8 8 7 7 8 8 8 7 8 8 8 9 9 9 10 9 9
4 4 3 4 5 3 3 2 0 0 1 0 1 1 1 1 3 2 2 3 3 4 3 3 5 5 6 6 7 7 6 6 7 7 7 7 7 7 7 7 7 7 7 8 8 9 9 8 9
4 3 3 4 3 3 2 1 1 1 1 2 2 2 1 0 1 1 2 3 3 3 3 2 3 3 4 5 5 6 6 5 6 7 6 6 7 7 7 6 7 7 7 7 7 8 8 7 7
4 4 2 2 3 3 2 1 0 1 2 1 1 3 2 1 1 2 3 3 3 3 3 3 3 3 3 3 3 5 5 5 5 6 5 5 5 5 6 5 6 7 7 7 6 7 7 6 6
3 3 3 4 4 2 1 1 3 1 0 1 0 1 2 2 3 4 3 2 2 3 2 3 3 3 2 2 3 3 4 4 4 4 5 5 2 2 3 3 5 6 6 6 6 6 6 5 5
3 3 5 3 3 2 1 1 2 2 1 1 1 2 2 2 4 4 3 2 1 1 1 2 2 2 2 2 2 1 2 2 3 3 3 3 2 2 3 4 5 6 6 6 6 6 6 4 2
2 4 2 1 1 1 1 2 1 1 2 3 3 3 1 2 3 3 3 3 2 2 1 1 1 1 2 2 1 1 1 1 2 3 3 3 2 2 2 2 2 3 4 3 4 4 2 2 2
1 2 2 2 1 1 2 1 2 2 5 3 3 2 0 1 3 3 3 3 2 1 1 0 1 1 1 2 1 1 1 1 2 2 3 3 2 2 1 1 2 2 2 2 2 2 2 2 2
1 1 1 2 1 1 1 2 3 4 5 3 2 1 2 2 3 3 3 2 2 1 1 1 1 1 1 1 0 1 1 1 2 2 2 3 2 2 2 1 2 2 2 2 2 2 2 2 2
1 1 3 3 2 1 1 4 2 6 3 2 2 3 3 3 3 2 2 2 2 2 2 1 1 1 1 1 1 1 1 1 2 2 3 3 3 3 2 2 2 1 1 2 2 1 1 1 1
0 2 4 2 1 1 0 5 5 5 1 2 3 3 3 3 3 3 3 3 3 3 2 2 2 1 1 1 2 2 2 2 2 2 3 3 3 3 3 2 2 1 2 2 2 1 1 1 0
1 1 2 3 1 1 1 6 3 1 1 3 4 4 3 3 3 4 3 3 3 2 2 2 2 1 1 1 2 1 2 2 2 2 3 3 3 4 3 2 2 1 2 2 2 1 1 0 0
2 1 3 4 1 1 1 7 5 3 2 4 4 4 3 2 2 3 3 3 3 3 3 2 1 2 2 2 2 1 2 2 2 2 3 3 3 4 3 3 2 2 2 2 2 1 1 0 0
2 3 3 4 2 1 3 8 8 4 3 4 4 4 3 3 4 3 3 2 2 2 1 0 1 1 2 2 1 1 1 1 2 2 3 4 3 4 3 3 3 2 2 2 2 2 1 1 0
2 2 5 5 3 3 5 8 10 6 3 3 4 4 3 4 4 3 3 1 0 0 0 1 0 1 1 1 2 2 2 2 2 2 3 3 3 4 3 2 2 2 2 2 3 2 2 1 1
2 3 4 4 2 2 4 8 7 4 3 2 2 3 4 4 5 4 3 2 1 1 0 1 1 1 2 2 2 2 2 2 2 2 3 3 4 4 3 4 3 3 2 3 3 2 2 1 1
2 3 3 3 5 2 4 6 3 2 1 2 2 3 4 3 5 5 4 3 2 1 2 2 2 2 2 1 1 1 1 1 1 2 2 3 4 4 4 4 4 4 3 3 3 3 3 2 1
3 2 2 2 2 3 2 5 5 2 4 4 4 5 5 5 4 4 4 4 3 3 2 2 2 1 1 1 2 3 3 3 3 2 3 3 4 4 4 4 4 4 3 3 3 3 3 3 3
2 1 1 1 1 2 1 2 7 2 3 5 5 5 6 6 5 5 5 4 4 3 2 2 2 2 1 2 2 3 3 3 2 2 3 3 3 4 4 4 4 4 3 3 3 3 3 3 3
0 2 3 4 3 2 2 2 7 2 3 4 5 6 6 6 6 5 5 4 4 3 2 1 1 2 2 2 2 3 4 4 3 3 3 3 2 3 4 4 4 4 3 4 4 4 4 4 4
3 4 5 6 4 5 1 2 8 4 2 3 5 6 6 6 6 6 6 5 5 5 3 2 2 2 2 2 2 3 4 3 4 3 4 3 3 3 4 4 4 4 3 3 3 4 4 4 4
0 3 4 2 4 5 2 5 6 3 2 3 3 4 6 6 6 5 5 5 5 4 4 3 2 2 2 2 2 2 2 2 2 2 3 3 3 3 4 4 4 4 3 3 3 3 3 3 4
2 1 2 4 0 3 6 6 7 2 3 4 5 6 7 7 7 6 6 5 5 4 4 3 2 2 2 2 2 2 2 2 2 2 2 2 2 2 3 3 3 3 3 3 3 3 3 3 3
1 3 3 3 0 4 6 5 4 4 5 5 6 6 7 7 7 7 6 6 5 5 4 3 2 2 2 1 1 1 2 2 2 2 2 2 2 2 2 2 3 3 3 3 3 3 3 3 3
2 2 3 2 2 2 4 6 3 2 3 4 5 5 6 6 7 7 6 6 5 5 4 3 3 2 2 1 1 1 1 1 1 1 2 2 2 2 3 3 3 3 3 3 3 3 3 4 4
1 3 4 2 3 3 3 8 2 1 3 3 5 6 6 6 6 6 6 6 5 5 5 4 3 3 2 2 1 1 0 0 0 1 1 1 1 1 2 2 2 3 3 3 3 4 3 4 4
Wind_Direction
348 354 47 55 59 58 231 238 207 197 204 218 123 136 148 153 157 180 352 115 105 132 154 148 136 135 133 126 118 120 126 125 125 124 124 124 124 122 119 117 117 115 112 115 117 116 114 111 107
351 4 51 62 103 195 248 232 204 211 202 106 47 85 98 149 60 79 43 323 112 123 117 129 131 130 133 128 123 118 120 123 125 125 125 125 126 125 122 119 120 118 116 115 120 119 118 115 111
20 46 79 85 148 196 221 211 201 244 12 101 74 40 119 176 50 196 279 148 105 105 95 105 122 129 131 131 127 124 119 124 123 123 127 127 127 128 126 123 123 122 120 117 115 117 118 118 116
63 49 58 90 217 227 227 246 193 173 1 30 109 20 337 17 323 232 139 117 111 97 87 108 110 128 126 129 130 129 121 127 128 124 124 127 127 127 126 124 125 126 126 123 119 115 116 117 117
58 76 76 243 243 249 257 272 225 159 222 355 113 152 284 358 23 78 107 109 116 106 95 113 115 115 122 127 130 132 128 133 133 130 126 124 128 128 126 124 128 130 130 128 126 123 118 121 121
60 72 116 222 243 265 282 287 233 235 239 307 117 167 236 36 56 70 101 101 104 111 105 112 121 110 111 122 130 128 127 129 134 132 129 127 127 132 130 127 131 133 135 134 132 129 124 121 125
107 113 179 205 235 266 271 324 180 221 233 239 188 164 241 81 43 93 87 87 87 93 92 83 96 101 103 96 124 126 126 123 128 128 124 124 125 125 129 128 131 130 133 137 137 134 129 126 124
121 114 169 210 215 246 307 350 356 215 251 293 145 173 223 230 154 104 84 79 82 77 81 80 75 77 83 84 99 113 117 118 121 121 109 111 121 124 123 128 136 135 132 128 129 129 128 125 122
92 95 207 210 201 232 343 350 333 310 209 342 287 222 274 133 126 106 83 66 74 69 63 71 74 69 72 73 76 105 112 102 104 110 95 91 88 96 108 109 127 135 133 127 121 118 116 110 109
100 175 220 212 192 205 310 317 310 349 0 320 298 340 10 127 132 132 130 135 118 95 84 75 79 84 79 77 79 77 96 97 90 94 95 92 84 84 86 94 103 116 118 118 115 108 101 92 81
140 197 221 245 242 229 290 314 306 183 256 241 257 290 354 137 137 153 172 177 185 157 126 101 93 87 86 74 88 78 77 90 96 96 92 94 90 84 80 89 97 98 98 97 95 86 80 80 82
151 249 233 260 304 291 269 292 307 240 238 248 262 256 246 200 176 185 193 200 191 142 164 114 101 80 71 78 104 115 104 121 119 117 108 106 106 94 92 94 94 87 94 100 92 86 83 81 77
198 261 300 294 322 280 277 261 261 260 261 271 292 269 248 235 213 205 201 201 188 194 202 210 157 129 67 81 156 135 138 155 141 128 128 123 122 118 107 105 92 89 96 100 100 100 93 91 91
233 292 298 300 287 277 239 269 248 260 260 280 279 260 259 249 224 215 208 204 204 212 215 219 176 170 125 103 190 173 168 165 149 145 143 138 135 134 129 125 120 115 107 110 117 124 120 117 116
5 338 321 298 258 235 231 291 233 246 272 284 282 271 265 252 228 220 215 212 213 216 217 215 197 176 148 165 198 175 175 160 164 158 155 150 143 142 138 139 145 150 124 112 110 92 102 103 101
26 21 305 300 324 298 156 263 251 242 218 284 290 279 270 245 226 235 224 220 224 219 215 223 215 168 179 190 196 177 174 167 175 163 161 158 149 148 151 156 166 161 139 131 133 123 105 122 190
23 290 267 294 297 11 210 259 275 291 283 283 289 292 281 285 290 268 241 220 220 216 216 217 203 186 196 196 184 163 165 169 178 169 168 168 158 158 162 164 169 161 153 151 155 144 155 158 274
246 264 265 271 286 299 260 264 280 285 258 271 289 298 289 292 289 291 277 247 226 223 216 168 218 193 186 179 169 140 152 173 179 179 177 173 170 169 164 163 165 167 161 165 163 160 143 153 215
209 246 270 275 288 293 264 274 281 282 273 281 297 305 297 294 301 314 311 294 285 277 92 138 201 214 182 178 182 177 190 196 193 185 177 178 174 174 171 164 167 179 182 185 175 167 151 118 94
225 261 276 295 321 297 286 282 278 266 243 249 296 316 310 317 330 331 329 328 278 261 249 219 221 236 220 208 186 174 175 191 203 185 181 182 179 179 178 173 182 190 191 187 182 173 161 163 148
258 219 243 279 323 335 319 305 302 313 342 359 353 327 322 314 313 320 323 314 321 306 267 255 250 251 244 215 157 131 133 175 201 199 190 190 185 187 191 190 188 191 190 195 196 190 184 192 206
270 244 239 276 340 309 7 302 291 319 333 346 345 343 332 327 318 320 325 321 314 296 285 270 255 247 245 209 189 191 197 208 218 210 200 198 190 193 194 190 189 191 195 199 207 207 200 190 207
231 315 322 284 164 324 334 248 289 346 323 318 329 333 328 325 327 325 322 313 316 313 303 281 257 247 237 216 202 199 212 217 217 203 195 199 198 195 192 192 192 197 203 204 208 212 206 207 210
216 35 52 49 63 317 258 195 282 269 268 308 325 328 330 333 337 332 335 339 334 333 328 310 269 264 249 222 210 205 207 214 214 218 207 205 202 197 194 194 196 201 204 208 212 214 214 216 216
46 67 25 3 4 267 266 223 257 265 275 284 302 318 330 342 346 346 352 349 340 340 336 316 281 275 262 229 221 221 211 207 216 225 215 209 207 208 205 205 205 207 208 211 213 215 219 220 218
344 116 141 209 254 288 301 244 259 277 312 326 329 331 347 355 353 350 348 341 331 329 326 310 296 288 280 242 234 227 208 201 222 228 221 215 215 213 203 205 212 215 210 213 215 224 230 225 227
92 103 142 128 195 284 278 288 301 321 351 356 358 1 355 350 348 343 342 340 335 330 320 303 298 301 291 259 241 220 211 210 224 239 219 212 219 215 195 199 206 214 214 214 212 221 230 229 234
118 135 90 101 154 286 294 281 273 307 324 340 349 351 346 345 342 339 337 336 337 332 325 333 322 299 290 276 251 247 225 221 218 227 224 210 205 203 195 202 208 209 211 214 217 225 226 226 234
97 89 102 117 169 192 288 278 235 264 309 316 324 333 335 334 330 329 330 331 333 336 336 345 344 339 338 318 283 259 241 226 213 228 237 219 201 197 200 200 209 214 216 212 216 232 230 228 234
175 170 150 164 240 209 240 271 280 283 311 319 323 328 327 326 327 327 329 334 340 342 340 342 342 336 326 331 351 340 287 217 189 252 259 219 206 208 206 204 212 224 223 218 220 230 234 229 232